Flag for United Kingdom Weather past 2 weeks in St. Peter Port, Guernsey, United Kingdom

Now
63 °F

Partly sunny.


Feels Like: 63 °F
Forecast: 60 / 65 °F
Wind: 16 mph from West

Location: Guernsey Airport

Current Time: Aug 30, 2014 at 3:20:00 PM

Latest Report: Aug 30, 2014 at 2:50 PM


Visibility: N/A

Pressure: 30.12 "Hg

Humidity: 83%

Dew point: 57 °F

Location of St. Peter PortLocation

Historic Weather in St. Peter Port — Graph

°F

St. Peter Port temperature yesterday

Maximum temperature yesterday: 64 °F (at 11:50 AM)
Minimum temperature yesterday: 59 °F (at 4:20 AM)
Average temperature yesterday: 62 °F

Past Weeks' High & Low Weather Summary

 TemperatureHumidityPressure
High66 °F (Aug 28, 12:20 PM)100% (Aug 16, 5:20 AM)30.27 "Hg (Aug 16, 5:20 AM)
Low52 °F (Aug 21, 3:50 AM)56% (Aug 20, 3:20 PM)29.59 "Hg (Aug 26, 3:50 AM)
Average60 °F83%29.99 "Hg
* Reported Aug 15 3:20 PM — Aug 30 2:20 PM, St. Peter Port, Weather by CustomWeather, © 2014

Note: Actual official high and low records may vary slightly from our data, if they occured in-between our weather recording intervals... More about our weather records

Advertising

St. Peter Port weather history for previous 24 hours

 ConditionsComfort  
Time TempWeatherWind HumidityBarometerVisibility
2:20 PM
Aug 30
63 °FPartly sunny.16 mph83%30.12 "HgN/A
1:50 PM63 °FPartly sunny.16 mph88%30.12 "HgN/A
1:20 PM61 °FPartly sunny.14 mph94%30.12 "HgN/A
12:50 PM59 °FLight rain. Broken clouds.13 mph100%30.12 "HgN/A
12:20 PM59 °FLight rain. Partly sunny.12 mph100%30.12 "HgN/A
11:50 AM59 °FDrizzle. Partly sunny.13 mph94%30.12 "Hg5 mi
11:20 AM61 °FBroken clouds.18 mph94%30.09 "HgN/A
10:50 AM63 °FBroken clouds.18 mph94%30.12 "HgN/A
10:20 AM61 °FPartly sunny.17 mph94%30.12 "HgN/A
9:50 AM59 °FDrizzle. Broken clouds.17 mph100%30.09 "Hg4 mi
9:20 AM61 °FDrizzle. Partly sunny.21 mph94%30.09 "Hg6 mi
8:50 AM61 °FBroken clouds.16 mph94%30.09 "HgN/A
8:20 AM61 °FPartly sunny.18 mph94%30.09 "HgN/A
7:50 AM61 °FPartly sunny.18 mph94%30.09 "HgN/A
7:20 AM61 °FPassing clouds.17 mph94%30.09 "HgN/A
6:50 AM59 °FPartly cloudy.18 mph100%30.09 "Hg2 mi
6:20 AM61 °FPartly cloudy.17 mph94%30.07 "HgN/A
5:50 AM61 °FLight rain. Partly cloudy.17 mph94%30.07 "HgN/A
5:20 AM61 °FPassing clouds.17 mph94%30.07 "HgN/A
4:50 AM61 °FPassing clouds.18 mph94%30.07 "HgN/A
4:20 AM61 °FPassing clouds.18 mph94%30.07 "HgN/A
3:50 AM61 °FPassing clouds.20 mph94%30.07 "HgN/A
8:50 PM
Aug 29
61 °FPartly sunny.21 mph94%30.09 "HgN/A
8:20 PM61 °FPartly sunny.20 mph94%30.07 "HgN/A
7:50 PM61 °FPartly sunny.22 mph94%30.07 "HgN/A
7:20 PM61 °FScattered clouds.22 mph94%30.07 "HgN/A
6:50 PM63 °FPartly sunny.18 mph88%30.07 "HgN/A
6:20 PM63 °FPartly sunny.21 mph88%30.07 "HgN/A
5:50 PM63 °FPartly sunny.21 mph88%30.07 "HgN/A
5:20 PM63 °FPartly sunny.23 mph88%30.07 "HgN/A
4:50 PM63 °FPassing clouds.20 mph88%30.07 "HgN/A
4:20 PM64 °FPartly sunny.22 mph83%30.07 "HgN/A
3:50 PM64 °FPassing clouds.20 mph88%30.07 "HgN/A
3:20 PM64 °FPassing clouds.21 mph83%30.07 "HgN/A
Weather by CustomWeather, © 2014

See weather overviewHow to use our weather pages